FIN180 EFHK-ENBR

Flight info

Callsign FIN180
Flight time 1h 45m
Altitude 36000
Route ADIVO Y365 POGOK DCT PESUR
Aircraft A320/M-SDE3FGHIRWY/LB1

Departure

Time 2026-04-26 11:11
Airport Helsinki Vantaa Airport (EFHK)

Arrival

Time 2026-04-26 12:56
Airport Bergen Airport, Flesland (ENBR)
Time Latitude Longitude Altitude Speed Heading
2026-04-26 10:38 60.31785 24.97079 164 ft 0 kts 243°
2026-04-26 10:59 60.31786 24.97083 163 ft 3 kts 243°
2026-04-26 11:00 60.31798 24.97130 163 ft 4 kts 239°
2026-04-26 11:00 60.31813 24.97174 163 ft 4 kts 218°
2026-04-26 11:00 60.31832 24.97188 163 ft 2 kts 153°
2026-04-26 11:00 60.31851 24.97168 163 ft 1 kts 153°
2026-04-26 11:05 60.31820 24.97199 163 ft 11 kts 153°
2026-04-26 11:05 60.31740 24.97281 163 ft 12 kts 153°
2026-04-26 11:06 60.31668 24.97355 163 ft 11 kts 153°
2026-04-26 11:06 60.31629 24.97512 162 ft 17 kts 111°
2026-04-26 11:06 60.31512 24.97669 161 ft 25 kts 151°
2026-04-26 11:06 60.31335 24.97865 161 ft 33 kts 155°
2026-04-26 11:07 60.31186 24.98001 162 ft 21 kts 153°
2026-04-26 11:07 60.31062 24.98132 162 ft 19 kts 153°
2026-04-26 11:07 60.30980 24.98224 161 ft 10 kts 128°
2026-04-26 11:07 60.30973 24.98294 160 ft 0 kts 81°
2026-04-26 11:09 60.30974 24.98299 160 ft 3 kts 79°
2026-04-26 11:10 60.31008 24.98463 155 ft 16 kts 62°
2026-04-26 11:10 60.31055 24.98470 155 ft 0 kts 333°
2026-04-26 11:10 60.31057 24.98469 155 ft 0 kts 333°
2026-04-26 11:10 60.31060 24.98466 155 ft 1 kts 333°
2026-04-26 11:11 60.31103 24.98423 156 ft 29 kts 333°
2026-04-26 11:11 60.31501 24.98016 155 ft 95 kts 333°
2026-04-26 11:11 60.32237 24.97243 294 ft 128 kts 333°
2026-04-26 11:11 60.33016 24.96433 947 ft 128 kts 333°
2026-04-26 11:12 60.33759 24.95358 1609 ft 135 kts 324°
2026-04-26 11:12 60.34437 24.93827 2068 ft 160 kts 311°
2026-04-26 11:12 60.34978 24.91652 2347 ft 190 kts 296°
2026-04-26 11:12 60.35206 24.88790 2683 ft 224 kts 277°
2026-04-26 11:13 60.34869 24.85486 3193 ft 257 kts 254°
2026-04-26 11:13 60.34006 24.82214 4017 ft 267 kts 249°
2026-04-26 11:13 60.33111 24.78911 4924 ft 270 kts 250°
2026-04-26 11:13 60.32215 24.75570 5840 ft 272 kts 250°
2026-04-26 11:14 60.31314 24.72190 6711 ft 275 kts 249°
2026-04-26 11:14 60.30419 24.68776 7550 ft 276 kts 252°
2026-04-26 11:14 60.29840 24.65133 8391 ft 270 kts 268°
2026-04-26 11:14 60.29725 24.62666 8946 ft 266 kts 276°
2026-04-26 11:15 60.29746 24.57628 10014 ft 272 kts 277°
2026-04-26 11:15 60.29766 24.53673 10308 ft 294 kts 277°
2026-04-26 11:15 60.29785 24.49431 10669 ft 310 kts 276°
2026-04-26 11:15 60.29796 24.45024 11304 ft 317 kts 276°
2026-04-26 11:16 60.29799 24.40543 12043 ft 321 kts 276°
2026-04-26 11:16 60.29798 24.36022 12767 ft 325 kts 274°
2026-04-26 11:16 60.29796 24.31495 13482 ft 329 kts 275°
2026-04-26 11:16 60.29796 24.26846 14084 ft 335 kts 273°
2026-04-26 11:17 60.29792 24.22127 14724 ft 337 kts 273°
2026-04-26 11:17 60.29786 24.17392 15412 ft 339 kts 274°
2026-04-26 11:17 60.29779 24.12615 16044 ft 341 kts 275°
2026-04-26 11:17 60.29770 24.07737 16660 ft 345 kts 275°
2026-04-26 11:18 60.29763 24.02864 17239 ft 349 kts 274°
2026-04-26 11:18 60.29677 23.97945 17884 ft 355 kts 266°
2026-04-26 11:18 60.29210 23.93023 18415 ft 361 kts 262°
2026-04-26 11:18 60.28676 23.88124 18957 ft 363 kts 262°
2026-04-26 11:19 60.28136 23.83130 19492 ft 366 kts 263°
2026-04-26 11:19 60.27593 23.78096 20008 ft 370 kts 262°
2026-04-26 11:19 60.27044 23.73026 20529 ft 373 kts 262°
2026-04-26 11:19 60.26484 23.67897 21037 ft 377 kts 263°
2026-04-26 11:20 60.25916 23.62726 21582 ft 380 kts 263°
2026-04-26 11:20 60.25528 23.59200 21939 ft 382 kts 263°
2026-04-26 11:20 60.24760 23.52252 22615 ft 386 kts 262°
2026-04-26 11:20 60.24168 23.46953 23120 ft 390 kts 262°
2026-04-26 11:21 60.23566 23.41604 23579 ft 393 kts 262°
2026-04-26 11:21 60.22960 23.36226 23969 ft 395 kts 262°
2026-04-26 11:21 60.22350 23.30811 24333 ft 398 kts 264°
2026-04-26 11:21 60.21736 23.25362 24718 ft 401 kts 264°
2026-04-26 11:22 60.21115 23.19877 25091 ft 403 kts 264°
2026-04-26 11:22 60.20487 23.14376 25460 ft 406 kts 264°
2026-04-26 11:22 60.19852 23.08834 25795 ft 408 kts 265°
2026-04-26 11:22 60.19210 23.03271 26184 ft 409 kts 265°
2026-04-26 11:23 60.18561 22.97680 26557 ft 412 kts 265°
2026-04-26 11:23 60.17911 22.92063 26901 ft 414 kts 265°
2026-04-26 11:23 60.17257 22.86415 27247 ft 416 kts 265°
2026-04-26 11:23 60.16597 22.80737 27595 ft 419 kts 265°
2026-04-26 11:24 60.15927 22.75030 27936 ft 421 kts 265°
2026-04-26 11:24 60.15246 22.69295 28277 ft 424 kts 265°
2026-04-26 11:24 60.14558 22.63529 28611 ft 426 kts 265°
2026-04-26 11:24 60.13867 22.57735 28921 ft 428 kts 265°
2026-04-26 11:25 60.13174 22.51918 29169 ft 430 kts 266°
2026-04-26 11:25 60.12479 22.46080 29535 ft 430 kts 266°
2026-04-26 11:25 60.12015 22.42206 29760 ft 431 kts 266°
2026-04-26 11:25 60.11073 22.34362 30128 ft 434 kts 266°
2026-04-26 11:26 60.10370 22.28551 30343 ft 436 kts 266°
2026-04-26 11:26 60.09653 22.22634 30552 ft 438 kts 266°
2026-04-26 11:26 60.08929 22.16693 30758 ft 440 kts 265°
2026-04-26 11:26 60.08200 22.10741 30952 ft 442 kts 265°
2026-04-26 11:27 60.07462 22.04754 31192 ft 442 kts 265°
2026-04-26 11:27 60.06960 22.00704 31413 ft 441 kts 265°
2026-04-26 11:27 60.06218 21.94763 31715 ft 441 kts 265°
2026-04-26 11:27 60.05469 21.88803 31991 ft 441 kts 265°
2026-04-26 11:28 60.04722 21.82871 32266 ft 441 kts 265°
2026-04-26 11:28 60.03985 21.77004 32535 ft 441 kts 265°
2026-04-26 11:28 60.03235 21.71045 32761 ft 441 kts 265°
2026-04-26 11:28 60.02487 21.65114 33103 ft 439 kts 265°
2026-04-26 11:29 60.01736 21.59223 33430 ft 438 kts 265°
2026-04-26 11:29 60.00978 21.53318 33721 ft 437 kts 264°
2026-04-26 11:29 60.00223 21.47430 33993 ft 437 kts 264°
2026-04-26 11:29 59.99596 21.41529 34213 ft 430 kts 271°
2026-04-26 11:30 59.99447 21.35643 34424 ft 420 kts 280°
2026-04-26 11:30 59.99757 21.29901 34602 ft 414 kts 286°
2026-04-26 11:30 60.00182 21.24203 34778 ft 415 kts 285°
2026-04-26 11:30 60.00603 21.18490 34953 ft 416 kts 285°
2026-04-26 11:31 60.01019 21.12748 35126 ft 417 kts 285°
2026-04-26 11:31 60.01426 21.07003 35304 ft 418 kts 285°
2026-04-26 11:31 60.01830 21.01252 35464 ft 419 kts 284°
2026-04-26 11:31 60.02233 20.95485 35628 ft 418 kts 285°
2026-04-26 11:32 60.02632 20.89727 35833 ft 418 kts 284°
2026-04-26 11:32 60.03033 20.83955 35963 ft 418 kts 284°
2026-04-26 11:32 60.03824 20.72478 35989 ft 415 kts 284°
2026-04-26 11:33 60.04605 20.61039 35991 ft 415 kts 284°
2026-04-26 11:33 60.05368 20.49672 36001 ft 415 kts 284°
2026-04-26 11:34 60.06128 20.38215 36000 ft 415 kts 284°
2026-04-26 11:34 60.06872 20.26780 35972 ft 414 kts 284°
2026-04-26 11:35 60.07606 20.15334 35989 ft 414 kts 284°
2026-04-26 11:35 60.08333 20.03915 35995 ft 413 kts 284°
2026-04-26 11:36 60.09050 19.92508 36001 ft 413 kts 284°
2026-04-26 11:36 60.09754 19.81092 36000 ft 412 kts 284°
2026-04-26 11:37 60.10449 19.69683 35998 ft 412 kts 284°
2026-04-26 11:37 60.11131 19.58273 36023 ft 412 kts 284°
2026-04-26 11:38 60.11807 19.46863 36030 ft 412 kts 284°
2026-04-26 11:38 60.12471 19.35455 36030 ft 412 kts 284°
2026-04-26 11:39 60.13121 19.24033 36034 ft 412 kts 283°
2026-04-26 11:39 60.13761 19.12591 36033 ft 412 kts 283°
2026-04-26 11:40 60.14389 19.01233 36036 ft 412 kts 283°
2026-04-26 11:40 60.15019 18.89807 36027 ft 412 kts 284°
2026-04-26 11:42 60.17420 18.44115 36050 ft 411 kts 283°
2026-04-26 11:43 60.17993 18.32680 36049 ft 411 kts 283°
2026-04-26 11:43 60.18559 18.21248 36023 ft 411 kts 283°
2026-04-26 11:44 60.19110 18.09818 36032 ft 411 kts 283°
2026-04-26 11:44 60.19653 17.98393 36039 ft 411 kts 283°
2026-04-26 11:45 60.20188 17.86959 36043 ft 411 kts 283°
2026-04-26 11:45 60.20717 17.75533 36042 ft 411 kts 283°
2026-04-26 11:46 60.21226 17.64169 36045 ft 411 kts 283°
2026-04-26 11:46 60.21727 17.52718 36047 ft 410 kts 282°
2026-04-26 11:47 60.22225 17.41298 36060 ft 410 kts 282°
2026-04-26 11:47 60.22710 17.29887 36075 ft 409 kts 282°
2026-04-26 11:48 60.23182 17.18479 36074 ft 409 kts 282°
2026-04-26 11:48 60.23642 17.07084 36053 ft 408 kts 282°
2026-04-26 11:49 60.24092 16.95697 36065 ft 408 kts 282°
2026-04-26 11:49 60.24528 16.84373 36052 ft 404 kts 281°
2026-04-26 11:50 60.24958 16.73110 36072 ft 403 kts 281°
2026-04-26 11:50 60.25383 16.61843 36084 ft 403 kts 281°
2026-04-26 11:51 60.25789 16.50672 36091 ft 403 kts 281°
2026-04-26 11:51 60.26188 16.39415 36098 ft 403 kts 281°
2026-04-26 11:52 60.26514 16.30039 36096 ft 403 kts 281°
2026-04-26 11:52 60.26961 16.16883 36088 ft 402 kts 281°
2026-04-26 11:53 60.27327 16.05672 36103 ft 400 kts 281°
2026-04-26 11:54 60.27862 15.88900 36120 ft 399 kts 280°
2026-04-26 11:54 60.28207 15.77733 36117 ft 398 kts 280°
2026-04-26 11:55 60.28548 15.66587 36120 ft 398 kts 280°
2026-04-26 11:55 60.28872 15.55513 36078 ft 398 kts 280°
2026-04-26 11:56 60.29182 15.44360 36095 ft 399 kts 280°
2026-04-26 11:56 60.29483 15.33208 36103 ft 399 kts 280°
2026-04-26 11:57 60.29778 15.22039 36111 ft 399 kts 279°
2026-04-26 11:57 60.30068 15.10864 36121 ft 399 kts 279°
2026-04-26 11:58 60.30347 14.99692 36141 ft 399 kts 279°
2026-04-26 11:58 60.30620 14.88513 36098 ft 399 kts 279°
2026-04-26 11:59 60.30883 14.77325 36138 ft 400 kts 279°
2026-04-26 11:59 60.31128 14.66107 36147 ft 400 kts 279°
2026-04-26 12:00 60.31366 14.54875 36160 ft 400 kts 279°
2026-04-26 12:00 60.31598 14.43656 36161 ft 400 kts 279°
2026-04-26 12:01 60.31822 14.32453 36172 ft 400 kts 279°
2026-04-26 12:01 60.32035 14.21219 36122 ft 400 kts 278°
2026-04-26 12:02 60.32241 14.09979 36145 ft 401 kts 278°
2026-04-26 12:02 60.32436 13.98809 36153 ft 401 kts 278°
2026-04-26 12:03 60.32625 13.87547 36160 ft 402 kts 278°
2026-04-26 12:03 60.32799 13.76289 36132 ft 402 kts 278°
2026-04-26 12:04 60.32963 13.65018 36150 ft 401 kts 278°
2026-04-26 12:04 60.33124 13.53768 36153 ft 401 kts 278°
2026-04-26 12:05 60.33270 13.42502 36158 ft 402 kts 277°
2026-04-26 12:05 60.33406 13.31212 36165 ft 402 kts 277°
2026-04-26 12:06 60.33536 13.19924 36169 ft 402 kts 277°
2026-04-26 12:06 60.33652 13.08634 36177 ft 402 kts 277°
2026-04-26 12:07 60.33752 12.97352 36180 ft 402 kts 277°
2026-04-26 12:07 60.33852 12.86128 36178 ft 402 kts 277°
2026-04-26 12:08 60.33947 12.74840 36174 ft 402 kts 277°
2026-04-26 12:08 60.34031 12.63550 36178 ft 402 kts 277°
2026-04-26 12:09 60.34105 12.52252 36178 ft 402 kts 276°
2026-04-26 12:09 60.34165 12.40950 36181 ft 403 kts 276°
2026-04-26 12:10 60.34204 12.29636 36183 ft 403 kts 276°
2026-04-26 12:10 60.34249 12.18327 36184 ft 403 kts 276°
2026-04-26 12:11 60.34282 12.07014 36167 ft 403 kts 276°
2026-04-26 12:11 60.34308 11.95714 36178 ft 402 kts 276°
2026-04-26 12:12 60.34316 11.84413 36190 ft 402 kts 275°
2026-04-26 12:12 60.34322 11.73114 36195 ft 402 kts 275°
2026-04-26 12:13 60.34322 11.61830 36194 ft 402 kts 275°
2026-04-26 12:13 60.34310 11.50541 36197 ft 402 kts 275°
2026-04-26 12:14 60.34284 11.41151 36193 ft 402 kts 275°
2026-04-26 12:14 60.34252 11.29894 36205 ft 401 kts 275°
2026-04-26 12:15 60.34211 11.18640 36223 ft 401 kts 275°
2026-04-26 12:15 60.34165 11.07384 36225 ft 400 kts 275°
2026-04-26 12:16 60.34105 10.96152 36223 ft 400 kts 275°
2026-04-26 12:16 60.34032 10.84927 36218 ft 400 kts 275°
2026-04-26 12:17 60.33953 10.73703 36188 ft 400 kts 274°
2026-04-26 12:17 60.33865 10.62463 36195 ft 401 kts 274°
2026-04-26 12:18 60.33765 10.51210 36195 ft 401 kts 274°
2026-04-26 12:18 60.33651 10.39970 36180 ft 400 kts 274°
2026-04-26 12:19 60.33530 10.28756 36189 ft 400 kts 274°
2026-04-26 12:19 60.33398 10.17597 36198 ft 400 kts 273°
2026-04-26 12:20 60.33253 10.06383 36170 ft 400 kts 273°
2026-04-26 12:20 60.33110 9.95146 36183 ft 401 kts 273°
2026-04-26 12:21 60.32979 9.83880 36184 ft 402 kts 273°
2026-04-26 12:21 60.32801 9.72577 36189 ft 403 kts 272°
2026-04-26 12:22 60.32612 9.61282 36200 ft 403 kts 272°
2026-04-26 12:22 60.32437 9.49971 36205 ft 403 kts 272°
2026-04-26 12:23 60.32253 9.38653 36194 ft 404 kts 272°
2026-04-26 12:23 60.32050 9.27316 36199 ft 404 kts 272°
2026-04-26 12:24 60.31834 9.16032 36204 ft 405 kts 271°
2026-04-26 12:24 60.31605 9.04674 36224 ft 405 kts 271°
2026-04-26 12:25 60.31241 8.87613 35991 ft 406 kts 271°
2026-04-26 12:25 60.31116 8.81891 35230 ft 409 kts 271°
2026-04-26 12:25 60.30995 8.76196 34761 ft 404 kts 271°
2026-04-26 12:26 60.30869 8.70562 34254 ft 400 kts 271°
2026-04-26 12:26 60.30738 8.64977 33737 ft 395 kts 271°
2026-04-26 12:26 60.30606 8.59485 33290 ft 390 kts 271°
2026-04-26 12:26 60.30472 8.54049 32815 ft 386 kts 271°
2026-04-26 12:27 60.30339 8.48677 32354 ft 381 kts 271°
2026-04-26 12:27 60.30209 8.43361 31897 ft 378 kts 271°
2026-04-26 12:27 60.30078 8.38095 31446 ft 374 kts 271°
2026-04-26 12:27 60.29945 8.32880 31012 ft 371 kts 271°
2026-04-26 12:28 60.29811 8.27719 30586 ft 367 kts 271°
2026-04-26 12:28 60.29679 8.22606 30118 ft 364 kts 271°
2026-04-26 12:28 60.29546 8.17547 29690 ft 359 kts 271°
2026-04-26 12:28 60.29412 8.12562 29279 ft 354 kts 271°
2026-04-26 12:29 60.29277 8.07645 28880 ft 349 kts 271°
2026-04-26 12:29 60.29139 8.02795 28490 ft 344 kts 270°
2026-04-26 12:29 60.28869 7.93282 27735 ft 335 kts 271°
2026-04-26 12:30 60.28737 7.88624 27365 ft 331 kts 271°
2026-04-26 12:30 60.28605 7.84030 27001 ft 326 kts 271°
2026-04-26 12:30 60.28472 7.79498 26634 ft 322 kts 271°
2026-04-26 12:31 60.28204 7.70612 25898 ft 314 kts 271°
2026-04-26 12:31 60.28072 7.66244 25533 ft 310 kts 271°
2026-04-26 12:31 60.27940 7.61983 25170 ft 307 kts 271°
2026-04-26 12:31 60.27806 7.57706 24793 ft 304 kts 271°
2026-04-26 12:32 60.27672 7.53469 24418 ft 302 kts 270°
2026-04-26 12:32 60.27535 7.49272 24047 ft 299 kts 270°
2026-04-26 12:32 60.27266 7.40967 23246 ft 294 kts 271°
2026-04-26 12:33 60.27135 7.36871 22851 ft 293 kts 270°
2026-04-26 12:33 60.27003 7.32763 22497 ft 294 kts 270°
2026-04-26 12:33 60.26869 7.28651 22129 ft 293 kts 270°
2026-04-26 12:33 60.26729 7.24557 21766 ft 292 kts 270°
2026-04-26 12:34 60.26588 7.20488 21382 ft 291 kts 270°
2026-04-26 12:34 60.26446 7.16410 21019 ft 291 kts 269°
2026-04-26 12:34 60.26306 7.12359 20678 ft 290 kts 270°
2026-04-26 12:34 60.26166 7.08309 20318 ft 289 kts 270°
2026-04-26 12:35 60.26023 7.04275 19964 ft 288 kts 270°
2026-04-26 12:35 60.25881 7.00257 19612 ft 287 kts 270°
2026-04-26 12:35 60.25740 6.96252 19246 ft 286 kts 270°
2026-04-26 12:35 60.25596 6.92256 18897 ft 286 kts 270°
2026-04-26 12:36 60.25453 6.88272 18542 ft 285 kts 270°
2026-04-26 12:36 60.25308 6.84304 18165 ft 283 kts 270°
2026-04-26 12:36 60.25162 6.80361 17816 ft 281 kts 270°
2026-04-26 12:36 60.25017 6.76496 17472 ft 280 kts 270°
2026-04-26 12:37 60.24867 6.72539 17134 ft 279 kts 269°
2026-04-26 12:37 60.24717 6.68706 16795 ft 278 kts 269°
2026-04-26 12:37 60.24565 6.64835 16464 ft 277 kts 270°
2026-04-26 12:37 60.24415 6.60966 16127 ft 277 kts 270°
2026-04-26 12:38 60.24269 6.57096 15770 ft 277 kts 270°
2026-04-26 12:38 60.24150 6.53238 15402 ft 276 kts 271°
2026-04-26 12:38 60.24047 6.49390 15068 ft 275 kts 271°
2026-04-26 12:38 60.23948 6.45549 14719 ft 275 kts 271°
2026-04-26 12:39 60.23846 6.41694 14361 ft 277 kts 271°
2026-04-26 12:39 60.23741 6.37824 13994 ft 278 kts 271°
2026-04-26 12:39 60.23633 6.33924 13606 ft 279 kts 271°
2026-04-26 12:39 60.23522 6.30035 13245 ft 278 kts 271°
2026-04-26 12:40 60.23407 6.26159 12879 ft 277 kts 271°
2026-04-26 12:40 60.23291 6.22281 12523 ft 278 kts 270°
2026-04-26 12:40 60.23174 6.18399 12151 ft 278 kts 271°
2026-04-26 12:40 60.23059 6.14529 11787 ft 276 kts 271°
2026-04-26 12:41 60.22943 6.10675 11420 ft 275 kts 270°
2026-04-26 12:41 60.22823 6.06878 11051 ft 275 kts 270°
2026-04-26 12:41 60.22701 6.03046 10674 ft 274 kts 270°
2026-04-26 12:41 60.22576 5.99228 10298 ft 273 kts 270°
2026-04-26 12:42 60.22451 5.95423 9881 ft 271 kts 270°
2026-04-26 12:42 60.22330 5.91651 9496 ft 270 kts 270°
2026-04-26 12:42 60.22205 5.87890 9118 ft 269 kts 268°
2026-04-26 12:42 60.21787 5.84215 8736 ft 273 kts 253°
2026-04-26 12:43 60.20921 5.80794 8298 ft 275 kts 243°
2026-04-26 12:43 60.19973 5.77537 8114 ft 264 kts 244°
2026-04-26 12:43 60.18985 5.74527 7972 ft 256 kts 230°
2026-04-26 12:43 60.17515 5.72577 7759 ft 255 kts 200°
2026-04-26 12:44 60.15758 5.72262 7644 ft 258 kts 171°
2026-04-26 12:44 60.14045 5.73347 7514 ft 259 kts 160°
2026-04-26 12:44 60.12320 5.74331 7385 ft 257 kts 173°
2026-04-26 12:44 60.10539 5.74504 7264 ft 256 kts 182°
2026-04-26 12:45 60.08760 5.74508 7124 ft 255 kts 181°
2026-04-26 12:45 60.06995 5.74387 7004 ft 253 kts 191°
2026-04-26 12:45 60.05311 5.73495 6882 ft 249 kts 203°
2026-04-26 12:45 60.03678 5.72300 6745 ft 251 kts 203°
2026-04-26 12:46 60.02040 5.71093 6614 ft 250 kts 207°
2026-04-26 12:46 60.00559 5.69348 6483 ft 245 kts 223°
2026-04-26 12:46 59.99254 5.67169 6343 ft 244 kts 224°
2026-04-26 12:46 59.97946 5.64985 6213 ft 244 kts 223°
2026-04-26 12:47 59.96790 5.62638 6071 ft 239 kts 238°
2026-04-26 12:47 59.95950 5.59810 5957 ft 236 kts 245°
2026-04-26 12:47 59.95338 5.56810 5821 ft 231 kts 265°
2026-04-26 12:47 59.95427 5.53685 5697 ft 225 kts 291°
2026-04-26 12:48 59.96186 5.51022 5522 ft 221 kts 316°
2026-04-26 12:48 59.97440 5.49316 5316 ft 220 kts 340°
2026-04-26 12:48 59.98904 5.48402 5124 ft 221 kts 343°
2026-04-26 12:48 60.00379 5.47493 4904 ft 221 kts 343°
2026-04-26 12:49 60.01826 5.46589 4693 ft 215 kts 342°
2026-04-26 12:49 60.03249 5.45697 4491 ft 214 kts 342°
2026-04-26 12:49 60.04665 5.44806 4290 ft 214 kts 342°
2026-04-26 12:49 60.06071 5.43921 4090 ft 209 kts 342°
2026-04-26 12:50 60.07441 5.43060 3890 ft 204 kts 341°
2026-04-26 12:50 60.08668 5.41759 3704 ft 198 kts 319°
2026-04-26 12:50 60.09545 5.39704 3526 ft 193 kts 298°
2026-04-26 12:50 60.09997 5.37215 3337 ft 190 kts 280°
2026-04-26 12:51 60.10234 5.34608 3176 ft 190 kts 280°
2026-04-26 12:51 60.10505 5.32015 3070 ft 190 kts 291°
2026-04-26 12:51 60.11117 5.29733 3002 ft 184 kts 312°
2026-04-26 12:51 60.12064 5.28077 3011 ft 178 kts 331°
2026-04-26 12:52 60.13133 5.27230 3026 ft 159 kts 348°
2026-04-26 12:52 60.14185 5.26876 2974 ft 145 kts 350°
2026-04-26 12:52 60.15141 5.26558 2844 ft 139 kts 350°
2026-04-26 12:52 60.16083 5.26244 2665 ft 136 kts 349°
2026-04-26 12:53 60.17006 5.25937 2527 ft 134 kts 349°
2026-04-26 12:53 60.17918 5.25633 2329 ft 131 kts 349°
2026-04-26 12:53 60.18818 5.25333 2145 ft 132 kts 349°
2026-04-26 12:53 60.19721 5.25032 1956 ft 131 kts 348°
2026-04-26 12:54 60.20623 5.24731 1770 ft 131 kts 348°
2026-04-26 12:54 60.21519 5.24432 1579 ft 131 kts 349°
2026-04-26 12:54 60.22410 5.24134 1401 ft 129 kts 348°
2026-04-26 12:54 60.23303 5.23835 1214 ft 130 kts 348°
2026-04-26 12:55 60.24188 5.23540 1030 ft 128 kts 347°
2026-04-26 12:55 60.25078 5.23242 845 ft 131 kts 349°
2026-04-26 12:55 60.25974 5.22942 668 ft 130 kts 349°
2026-04-26 12:55 60.26874 5.22641 483 ft 132 kts 351°
2026-04-26 12:56 60.27773 5.22339 296 ft 131 kts 351°
2026-04-26 12:56 60.28647 5.22045 161 ft 118 kts 350°
2026-04-26 12:56 60.29294 5.21828 156 ft 69 kts 351°
2026-04-26 12:56 60.29642 5.21714 146 ft 37 kts 350°
2026-04-26 12:57 60.29719 5.21851 148 ft 10 kts 82°
2026-04-26 12:57 60.29721 5.21879 149 ft 0 kts 82°
2026-04-26 12:58 60.29626 5.22041 152 ft 18 kts 170°
2026-04-26 12:58 60.29530 5.22073 155 ft 12 kts 170°
2026-04-26 12:58 60.29445 5.22104 158 ft 16 kts 168°
2026-04-26 12:58 60.29353 5.22251 166 ft 18 kts 162°
2026-04-26 12:59 60.29229 5.22297 174 ft 21 kts 170°
2026-04-26 12:59 60.29109 5.22337 179 ft 15 kts 171°
2026-04-26 12:59 60.29002 5.22371 176 ft 16 kts 171°
2026-04-26 12:59 60.28914 5.22398 175 ft 8 kts 171°
2026-04-26 13:00 60.28895 5.22474 175 ft 6 kts 87°
2026-04-26 13:00 60.28897 5.22527 175 ft 2 kts 86°
2026-04-26 13:00 60.28898 5.22545 175 ft 1 kts 85°
2026-04-26 13:00 60.28898 5.22547 175 ft 0 kts 85°